Time,TemperatureF,DewpointF,PressureIn,WindDirection,WindDirectionDegrees,WindSpeedMPH,WindSpeedGustMPH,Humidity,HourlyPrecipIn,Conditions,Clouds,dailyrainin,SoftwareType,DateUTC
2013-03-29 00:01:00,32.5,26.4,30.40,SSW,193,0.0,1.0,78,0.00,,,0.00,meteohub,2013-03-29 05:01:00,
2013-03-29 00:06:00,32.5,26.4,30.40,SSW,192,0.0,1.0,78,0.00,,,0.00,meteohub,2013-03-29 05:06:00,
2013-03-29 00:11:00,32.4,26.2,30.40,SSW,193,0.0,0.0,78,0.00,,,0.00,meteohub,2013-03-29 05:11:00,
2013-03-29 00:16:00,32.2,26.1,30.40,SSW,193,0.0,0.0,78,0.00,,,0.00,meteohub,2013-03-29 05:16:00,
2013-03-29 00:21:00,31.8,26.1,30.40,SSW,192,0.0,0.0,79,0.00,,,0.00,meteohub,2013-03-29 05:21:00,
2013-03-29 00:26:00,32.0,26.2,30.40,SSW,193,0.0,1.0,79,0.00,,,0.00,meteohub,2013-03-29 05:26:00,
2013-03-29 00:31:00,31.8,26.1,30.40,SSW,193,0.0,1.0,79,0.00,,,0.00,meteohub,2013-03-29 05:31:00,
2013-03-29 00:36:00,31.8,26.1,30.40,SSW,193,0.0,1.0,79,0.00,,,0.00,meteohub,2013-03-29 05:36:00,
2013-03-29 00:41:00,31.6,25.9,30.40,SSW,192,0.0,1.0,79,0.00,,,0.00,meteohub,2013-03-29 05:41:00,
2013-03-29 00:46:00,31.8,26.4,30.40,SSW,192,0.0,2.0,80,0.00,,,0.00,meteohub,2013-03-29 05:46:00,
2013-03-29 00:51:00,31.8,26.1,30.40,SSW,193,0.0,2.0,79,0.00,,,0.00,meteohub,2013-03-29 05:51:00,
2013-03-29 00:56:00,31.6,26.2,30.40,SSW,193,0.0,2.0,80,0.00,,,0.00,meteohub,2013-03-29 05:56:00,
2013-03-29 01:01:00,31.6,25.9,30.39,SSW,193,0.0,1.0,79,0.00,,,0.00,meteohub,2013-03-29 06:01:00,
2013-03-29 01:06:00,31.6,25.9,30.40,SSW,193,0.0,2.0,79,0.00,,,0.00,meteohub,2013-03-29 06:06:00,
2013-03-29 01:11:00,31.5,25.7,30.39,SSW,192,0.0,2.0,79,0.00,,,0.00,meteohub,2013-03-29 06:11:00,
2013-03-29 01:16:00,30.9,25.5,30.39,SSW,193,0.0,2.0,80,0.00,,,0.00,meteohub,2013-03-29 06:16:00,
2013-03-29 01:21:00,31.3,26.1,30.40,SSW,193,0.0,0.0,81,0.00,,,0.00,meteohub,2013-03-29 06:21:00,
2013-03-29 01:27:00,31.5,26.1,30.40,SSW,193,0.0,0.0,80,0.00,,,0.00,meteohub,2013-03-29 06:27:00,
2013-03-29 01:32:00,31.5,26.1,30.40,SSW,193,0.0,0.0,80,0.00,,,0.00,meteohub,2013-03-29 06:32:00,
2013-03-29 01:37:00,31.8,26.6,30.40,SSW,193,0.0,1.0,81,0.00,,,0.00,meteohub,2013-03-29 06:37:00,
2013-03-29 01:42:00,31.8,26.4,30.40,SSW,193,0.0,2.0,80,0.00,,,0.00,meteohub,2013-03-29 06:42:00,
2013-03-29 01:47:00,31.8,26.4,30.40,SSW,193,0.0,2.0,80,0.00,,,0.00,meteohub,2013-03-29 06:47:00,
2013-03-29 01:52:00,31.8,26.4,30.40,SSW,193,0.0,2.0,80,0.00,,,0.00,meteohub,2013-03-29 06:52:00,
2013-03-29 01:57:00,32.0,26.6,30.40,SSW,193,0.0,1.0,80,0.00,,,0.00,meteohub,2013-03-29 06:57:00,
2013-03-29 02:02:00,32.4,27.0,30.40,SSW,192,0.0,1.0,80,0.00,,,0.00,meteohub,2013-03-29 07:02:00,
2013-03-29 02:07:00,32.5,27.1,30.40,SSW,193,0.0,1.0,80,0.00,,,0.00,meteohub,2013-03-29 07:07:00,
2013-03-29 02:12:00,32.5,26.8,30.40,SSW,193,0.0,1.0,79,0.00,,,0.00,meteohub,2013-03-29 07:12:00,
2013-03-29 02:17:00,32.5,26.8,30.40,SSW,193,1.0,3.0,79,0.00,,,0.00,meteohub,2013-03-29 07:17:00,
2013-03-29 02:22:00,32.5,26.8,30.40,SSW,193,0.0,3.0,79,0.00,,,0.00,meteohub,2013-03-29 07:22:00,
2013-03-29 02:27:00,32.5,26.4,30.40,SSW,192,0.0,3.0,78,0.00,,,0.00,meteohub,2013-03-29 07:27:00,
2013-03-29 02:32:00,32.5,26.8,30.40,SSW,193,0.0,3.0,79,0.00,,,0.00,meteohub,2013-03-29 07:32:00,
2013-03-29 02:37:00,32.5,26.4,30.39,SSW,192,0.0,2.0,78,0.00,,,0.00,meteohub,2013-03-29 07:37:00,
2013-03-29 02:42:00,32.5,26.4,30.39,SSW,192,0.0,1.0,78,0.00,,,0.00,meteohub,2013-03-29 07:42:00,
2013-03-29 02:47:00,32.4,26.2,30.39,SSW,193,0.0,1.0,78,0.00,,,0.00,meteohub,2013-03-29 07:47:00,
2013-03-29 02:52:00,32.4,26.2,30.39,SSW,192,1.0,1.0,78,0.00,,,0.00,meteohub,2013-03-29 07:52:00,
2013-03-29 02:57:00,32.4,26.2,30.40,SSW,192,1.0,2.0,78,0.00,,,0.00,meteohub,2013-03-29 07:57:00,
2013-03-29 03:02:00,32.0,25.9,30.39,SSW,193,0.0,2.0,78,0.00,,,0.00,meteohub,2013-03-29 08:02:00,
2013-03-29 03:07:00,31.8,26.1,30.39,SSW,192,0.0,2.0,79,0.00,,,0.00,meteohub,2013-03-29 08:07:00,
2013-03-29 03:12:00,31.8,26.1,30.39,SSW,193,0.0,2.0,79,0.00,,,0.00,meteohub,2013-03-29 08:12:00,
2013-03-29 03:17:00,32.0,26.2,30.39,SSW,192,0.0,1.0,79,0.00,,,0.00,meteohub,2013-03-29 08:17:00,
2013-03-29 03:22:00,32.2,26.4,30.39,SSW,193,0.0,1.0,79,0.00,,,0.00,meteohub,2013-03-29 08:22:00,
2013-03-29 03:27:00,32.4,26.6,30.39,SSW,192,0.0,1.0,79,0.00,,,0.00,meteohub,2013-03-29 08:27:00,
2013-03-29 03:32:00,32.4,26.6,30.39,SSW,193,0.0,1.0,79,0.00,,,0.00,meteohub,2013-03-29 08:32:00,
2013-03-29 03:37:00,32.5,26.8,30.39,SSW,192,0.0,2.0,79,0.00,,,0.00,meteohub,2013-03-29 08:37:00,
2013-03-29 03:42:00,32.5,26.8,30.39,SSW,193,0.0,2.0,79,0.00,,,0.00,meteohub,2013-03-29 08:42:00,
2013-03-29 03:47:00,32.7,27.0,30.38,SSW,193,0.0,2.0,79,0.00,,,0.00,meteohub,2013-03-29 08:47:00,
2013-03-29 03:52:00,32.7,26.6,30.38,SSW,192,1.0,1.0,78,0.00,,,0.00,meteohub,2013-03-29 08:52:00,
2013-03-29 03:57:00,32.7,26.6,30.38,SSW,192,0.0,2.0,78,0.00,,,0.00,meteohub,2013-03-29 08:57:00,
2013-03-29 04:03:00,32.7,26.6,30.38,SSW,193,0.0,2.0,78,0.00,,,0.00,meteohub,2013-03-29 09:03:00,
2013-03-29 04:08:00,32.9,26.8,30.38,SSW,193,0.0,2.0,78,0.00,,,0.00,meteohub,2013-03-29 09:08:00,
2013-03-29 04:13:00,32.9,26.8,30.38,SSW,192,0.0,2.0,78,0.00,,,0.00,meteohub,2013-03-29 09:13:00,
2013-03-29 04:18:00,32.9,26.8,30.38,SSW,193,0.0,1.0,78,0.00,,,0.00,meteohub,2013-03-29 09:18:00,
2013-03-29 04:23:00,32.7,26.6,30.38,SSW,192,0.0,0.0,78,0.00,,,0.00,meteohub,2013-03-29 09:23:00,
2013-03-29 04:28:00,32.7,26.6,30.38,SSW,193,0.0,0.0,78,0.00,,,0.00,meteohub,2013-03-29 09:28:00,
2013-03-29 04:33:00,32.7,26.6,30.38,SSW,193,0.0,0.0,78,0.00,,,0.00,meteohub,2013-03-29 09:33:00,
2013-03-29 04:38:00,33.1,27.0,30.38,SSW,193,0.0,2.0,78,0.00,,,0.00,meteohub,2013-03-29 09:38:00,
2013-03-29 04:43:00,33.3,27.1,30.38,SSW,192,2.0,2.0,78,0.00,,,0.00,meteohub,2013-03-29 09:43:00,
2013-03-29 04:48:00,33.3,26.8,30.38,SSW,193,1.0,4.0,77,0.00,,,0.00,meteohub,2013-03-29 09:48:00,
2013-03-29 04:53:00,33.1,26.6,30.38,SSW,192,0.0,4.0,77,0.00,,,0.00,meteohub,2013-03-29 09:53:00,
2013-03-29 04:58:00,33.1,26.6,30.38,SSW,193,0.0,4.0,77,0.00,,,0.00,meteohub,2013-03-29 09:58:00,
2013-03-29 05:03:00,32.9,26.4,30.37,SSW,192,1.0,3.0,77,0.00,,,0.00,meteohub,2013-03-29 10:03:00,
2013-03-29 05:08:00,32.9,26.4,30.37,SSW,192,1.0,3.0,77,0.00,,,0.00,meteohub,2013-03-29 10:08:00,
2013-03-29 05:13:00,32.7,26.6,30.37,SSW,193,3.0,3.0,78,0.00,,,0.00,meteohub,2013-03-29 10:13:00,
2013-03-29 05:18:00,32.7,26.6,30.37,SSW,192,2.0,3.0,78,0.00,,,0.00,meteohub,2013-03-29 10:18:00,
2013-03-29 05:23:00,32.7,26.6,30.37,SSW,193,1.0,3.0,78,0.00,,,0.00,meteohub,2013-03-29 10:23:00,
2013-03-29 05:28:00,32.7,26.6,30.37,SSW,193,0.0,4.0,78,0.00,,,0.00,meteohub,2013-03-29 10:28:00,
2013-03-29 05:33:00,32.7,26.6,30.37,SSW,193,0.0,4.0,78,0.00,,,0.00,meteohub,2013-03-29 10:33:00,
2013-03-29 05:38:00,32.7,26.6,30.37,SSW,193,0.0,4.0,78,0.00,,,0.00,meteohub,2013-03-29 10:38:00,
2013-03-29 05:43:00,32.5,26.4,30.37,SSW,192,0.0,3.0,78,0.00,,,0.00,meteohub,2013-03-29 10:43:00,
2013-03-29 05:48:00,32.5,26.4,30.37,SSW,193,0.0,3.0,78,0.00,,,0.00,meteohub,2013-03-29 10:48:00,
2013-03-29 05:53:00,32.7,26.6,30.37,SSW,192,0.0,3.0,78,0.00,,,0.00,meteohub,2013-03-29 10:53:00,
2013-03-29 05:58:00,32.7,26.6,30.37,SSW,193,0.0,2.0,78,0.00,,,0.00,meteohub,2013-03-29 10:58:00,
2013-03-29 06:03:00,32.7,27.0,30.37,SSW,192,0.0,2.0,79,0.00,,,0.00,meteohub,2013-03-29 11:03:00,
2013-03-29 06:08:00,32.7,26.6,30.37,SSW,193,0.0,2.0,78,0.00,,,0.00,meteohub,2013-03-29 11:08:00,
2013-03-29 06:13:00,32.9,26.8,30.37,SSW,193,1.0,2.0,78,0.00,,,0.00,meteohub,2013-03-29 11:13:00,
2013-03-29 06:18:00,33.1,27.0,30.37,SSW,193,0.0,3.0,78,0.00,,,0.00,meteohub,2013-03-29 11:18:00,
2013-03-29 06:23:00,33.3,27.1,30.37,SSW,193,0.0,3.0,78,0.00,,,0.00,meteohub,2013-03-29 11:23:00,
2013-03-29 06:28:00,33.3,27.1,30.37,SSW,192,0.0,3.0,78,0.00,,,0.00,meteohub,2013-03-29 11:28:00,
2013-03-29 06:34:00,33.3,27.1,30.37,SSW,193,0.0,3.0,78,0.00,,,0.00,meteohub,2013-03-29 11:34:00,
2013-03-29 06:39:00,33.3,27.1,30.37,SSW,193,0.0,1.0,78,0.00,,,0.00,meteohub,2013-03-29 11:39:00,
2013-03-29 06:44:00,33.3,27.1,30.36,SSW,192,0.0,1.0,78,0.00,,,0.00,meteohub,2013-03-29 11:44:00,
2013-03-29 06:49:00,33.3,27.1,30.36,SSW,192,0.0,1.0,78,0.00,,,0.00,meteohub,2013-03-29 11:49:00,
2013-03-29 06:54:00,33.3,27.1,30.37,SSW,193,0.0,1.0,78,0.00,,,0.00,meteohub,2013-03-29 11:54:00,
2013-03-29 06:59:00,33.3,27.1,30.37,SSW,193,0.0,1.0,78,0.00,,,0.00,meteohub,2013-03-29 11:59:00,
2013-03-29 07:04:00,33.3,27.1,30.37,SSW,192,0.0,1.0,78,0.00,,,0.00,meteohub,2013-03-29 12:04:00,
2013-03-29 07:09:00,33.1,27.0,30.37,SSW,193,0.0,1.0,78,0.00,,,0.00,meteohub,2013-03-29 12:09:00,
2013-03-29 07:14:00,33.3,27.1,30.37,SSW,193,0.0,1.0,78,0.00,,,0.00,meteohub,2013-03-29 12:14:00,
2013-03-29 07:19:00,33.3,27.1,30.36,SSW,193,1.0,1.0,78,0.00,,,0.00,meteohub,2013-03-29 12:19:00,
2013-03-29 07:24:00,33.3,27.1,30.37,SSW,192,1.0,3.0,78,0.00,,,0.00,meteohub,2013-03-29 12:24:00,
2013-03-29 07:29:00,33.4,27.3,30.37,SSW,193,0.0,3.0,78,0.00,,,0.00,meteohub,2013-03-29 12:29:00,
2013-03-29 07:34:00,33.4,27.3,30.36,SSW,192,0.0,3.0,78,0.00,,,0.00,meteohub,2013-03-29 12:34:00,
2013-03-29 07:39:00,33.4,27.3,30.36,SSW,193,0.0,2.0,78,0.00,,,0.00,meteohub,2013-03-29 12:39:00,
2013-03-29 07:44:00,33.4,27.3,30.37,SSW,193,0.0,2.0,78,0.00,,,0.00,meteohub,2013-03-29 12:44:00,
2013-03-29 07:49:00,33.6,27.5,30.37,SSW,193,0.0,2.0,78,0.00,,,0.00,meteohub,2013-03-29 12:49:00,
2013-03-29 07:54:00,33.8,27.7,30.37,SSW,192,0.0,1.0,78,0.00,,,0.00,meteohub,2013-03-29 12:54:00,
2013-03-29 07:59:00,34.0,27.9,30.37,SSW,193,2.0,2.0,78,0.00,,,0.00,meteohub,2013-03-29 12:59:00,
2013-03-29 08:04:00,34.0,27.9,30.37,SSW,193,1.0,2.0,78,0.00,,,0.00,meteohub,2013-03-29 13:04:00,
2013-03-29 08:09:00,34.3,28.2,30.37,SSW,193,0.0,2.0,78,0.00,,,0.00,meteohub,2013-03-29 13:09:00,
2013-03-29 08:14:00,34.3,28.2,30.37,SSW,192,0.0,2.0,78,0.00,,,0.00,meteohub,2013-03-29 13:14:00,
2013-03-29 08:19:00,34.9,28.4,30.37,SSW,192,0.0,2.0,77,0.00,,,0.00,meteohub,2013-03-29 13:19:00,
2013-03-29 08:24:00,34.9,28.4,30.37,SSW,193,2.0,3.0,77,0.00,,,0.00,meteohub,2013-03-29 13:24:00,
2013-03-29 08:29:00,34.9,28.4,30.37,SSW,192,0.0,3.0,77,0.00,,,0.00,meteohub,2013-03-29 13:29:00,
2013-03-29 08:34:00,34.5,28.0,30.37,SSW,192,0.0,3.0,77,0.00,,,0.00,meteohub,2013-03-29 13:34:00,
2013-03-29 08:39:00,34.5,28.0,30.37,SSW,193,1.0,3.0,77,0.00,,,0.00,meteohub,2013-03-29 13:39:00,
2013-03-29 08:44:00,34.9,28.8,30.37,SSW,193,0.0,4.0,78,0.00,,,0.00,meteohub,2013-03-29 13:44:00,
2013-03-29 08:49:00,35.1,29.1,30.37,SSW,193,0.0,4.0,79,0.00,,,0.00,meteohub,2013-03-29 13:49:00,
2013-03-29 08:54:00,35.4,29.5,30.36,SSW,193,2.0,4.0,79,0.00,,,0.00,meteohub,2013-03-29 13:54:00,
2013-03-29 08:59:00,36.1,30.2,30.37,SSW,192,1.0,3.0,79,0.00,,,0.00,meteohub,2013-03-29 13:59:00,
2013-03-29 09:04:00,36.9,30.6,30.37,SSW,192,0.0,3.0,78,0.00,,,0.00,meteohub,2013-03-29 14:04:00,
2013-03-29 09:10:00,37.2,30.4,30.37,SSW,192,0.0,3.0,76,0.00,,,0.00,meteohub,2013-03-29 14:10:00,
2013-03-29 09:15:00,37.4,29.8,30.37,SSW,192,0.0,5.0,74,0.00,,,0.00,meteohub,2013-03-29 14:15:00,
2013-03-29 09:20:00,37.6,30.0,30.38,SSW,192,2.0,5.0,74,0.00,,,0.00,meteohub,2013-03-29 14:20:00,
2013-03-29 09:25:00,37.6,29.7,30.37,SSW,192,1.0,5.0,73,0.00,,,0.00,meteohub,2013-03-29 14:25:00,
2013-03-29 09:30:00,37.4,29.5,30.37,SSW,192,0.0,4.0,73,0.00,,,0.00,meteohub,2013-03-29 14:30:00,
2013-03-29 09:35:00,37.4,29.5,30.37,ESE,123,0.0,4.0,73,0.00,,,0.00,meteohub,2013-03-29 14:35:00,
2013-03-29 09:40:00,37.6,29.7,30.37,SE,124,0.0,4.0,73,0.00,,,0.00,meteohub,2013-03-29 14:40:00,
2013-03-29 09:45:00,37.6,30.0,30.37,SE,124,2.0,4.0,74,0.00,,,0.00,meteohub,2013-03-29 14:45:00,
2013-03-29 09:50:00,37.8,30.2,30.37,SE,124,2.0,3.0,74,0.00,,,0.00,meteohub,2013-03-29 14:50:00,
2013-03-29 09:55:00,37.8,30.2,30.37,SE,124,0.0,3.0,74,0.00,,,0.00,meteohub,2013-03-29 14:55:00,
2013-03-29 10:00:00,37.9,30.4,30.37,SE,124,1.0,3.0,74,0.00,,,0.00,meteohub,2013-03-29 15:00:00,
2013-03-29 10:05:00,37.9,30.4,30.36,SE,124,1.0,3.0,74,0.00,,,0.00,meteohub,2013-03-29 15:05:00,
2013-03-29 10:10:00,37.9,30.4,30.36,SE,124,0.0,4.0,74,0.00,,,0.00,meteohub,2013-03-29 15:10:00,
2013-03-29 10:15:00,38.3,31.1,30.37,ESE,123,0.0,4.0,75,0.00,,,0.00,meteohub,2013-03-29 15:15:00,
2013-03-29 10:20:00,38.8,30.9,30.37,ESE,123,0.0,4.0,73,0.00,,,0.00,meteohub,2013-03-29 15:20:00,
2013-03-29 10:25:00,39.0,30.7,30.37,SE,124,0.0,3.0,72,0.00,,,0.00,meteohub,2013-03-29 15:25:00,
2013-03-29 10:30:00,39.4,30.7,30.37,ESE,123,0.0,3.0,71,0.00,,,0.00,meteohub,2013-03-29 15:30:00,
2013-03-29 10:35:00,39.7,31.1,30.37,SE,124,0.0,3.0,71,0.00,,,0.00,meteohub,2013-03-29 15:35:00,
2013-03-29 10:40:00,39.7,30.7,30.37,SE,124,0.0,3.0,70,0.00,,,0.00,meteohub,2013-03-29 15:40:00,
2013-03-29 10:45:00,39.7,30.7,30.36,ESE,123,4.0,4.0,70,0.00,,,0.00,meteohub,2013-03-29 15:45:00,
2013-03-29 10:50:00,39.7,30.7,30.36,SE,124,0.0,3.0,70,0.00,,,0.00,meteohub,2013-03-29 15:50:00,
2013-03-29 10:55:00,39.7,30.7,30.37,SE,125,1.0,5.0,70,0.00,,,0.00,meteohub,2013-03-29 15:55:00,
2013-03-29 11:00:00,39.9,30.9,30.37,SE,125,0.0,5.0,70,0.00,,,0.00,meteohub,2013-03-29 16:00:00,
2013-03-29 11:05:00,40.1,30.7,30.36,SE,125,0.0,5.0,69,0.00,,,0.00,meteohub,2013-03-29 16:05:00,
2013-03-29 11:10:00,40.3,30.9,30.36,SE,126,3.0,3.0,69,0.00,,,0.00,meteohub,2013-03-29 16:10:00,
2013-03-29 11:15:00,40.5,30.7,30.36,SW,228,3.0,4.0,68,0.00,,,0.00,meteohub,2013-03-29 16:15:00,
2013-03-29 11:20:00,40.6,30.9,30.36,SW,234,3.0,6.0,68,0.00,,,0.00,meteohub,2013-03-29 16:20:00,
2013-03-29 11:25:00,40.8,30.7,30.35,WSW,237,0.0,6.0,67,0.00,,,0.00,meteohub,2013-03-29 16:25:00,
2013-03-29 11:30:00,41.4,31.3,30.35,WSW,238,3.0,6.0,67,0.00,,,0.00,meteohub,2013-03-29 16:30:00,
2013-03-29 11:35:00,42.3,31.6,30.35,WSW,242,1.0,6.0,66,0.00,,,0.00,meteohub,2013-03-29 16:35:00,
2013-03-29 11:40:00,43.2,32.2,30.35,WSW,242,2.0,5.0,65,0.00,,,0.00,meteohub,2013-03-29 16:40:00,
2013-03-29 11:45:00,43.9,32.5,30.36,WSW,240,2.0,7.0,64,0.00,,,0.00,meteohub,2013-03-29 16:45:00,
2013-03-29 11:50:00,44.2,32.0,30.35,WSW,249,4.0,7.0,62,0.00,,,0.00,meteohub,2013-03-29 16:50:00,
2013-03-29 11:55:00,44.4,31.8,30.35,SW,225,4.0,5.0,61,0.00,,,0.00,meteohub,2013-03-29 16:55:00,
2013-03-29 12:00:00,44.4,32.2,30.35,WSW,252,7.0,9.0,62,0.00,,,0.00,meteohub,2013-03-29 17:00:00,
2013-03-29 12:05:00,44.4,32.2,30.35,WSW,241,4.0,9.0,62,0.00,,,0.00,meteohub,2013-03-29 17:05:00,
2013-03-29 12:10:00,45.0,32.7,30.35,WSW,249,4.0,9.0,62,0.00,,,0.00,meteohub,2013-03-29 17:10:00,
2013-03-29 12:15:00,45.3,32.7,30.35,SW,236,6.0,9.0,61,0.00,,,0.00,meteohub,2013-03-29 17:15:00,
2013-03-29 12:20:00,46.0,33.3,30.34,SW,236,4.0,7.0,61,0.00,,,0.00,meteohub,2013-03-29 17:20:00,
2013-03-29 12:25:00,46.6,33.4,30.34,WSW,241,3.0,7.0,60,0.00,,,0.00,meteohub,2013-03-29 17:25:00,
2013-03-29 12:30:00,46.6,33.4,30.34,SW,236,4.0,9.0,60,0.00,,,0.00,meteohub,2013-03-29 17:30:00,
2013-03-29 12:35:00,46.8,33.6,30.34,SW,217,2.0,9.0,60,0.00,,,0.00,meteohub,2013-03-29 17:35:00,
2013-03-29 12:40:00,46.9,33.8,30.34,SSW,210,2.0,9.0,60,0.00,,,0.00,meteohub,2013-03-29 17:40:00,
2013-03-29 12:45:00,47.5,33.8,30.34,SW,217,3.0,9.0,59,0.00,,,0.00,meteohub,2013-03-29 17:45:00,
2013-03-29 12:50:00,47.7,34.5,30.34,WSW,250,5.0,9.0,60,0.00,,,0.00,meteohub,2013-03-29 17:50:00,
2013-03-29 12:55:00,48.0,34.9,30.33,WSW,244,4.0,11.0,60,0.00,,,0.00,meteohub,2013-03-29 17:55:00,
2013-03-29 13:00:00,48.4,35.1,30.33,WNW,287,4.0,11.0,60,0.00,,,0.00,meteohub,2013-03-29 18:00:00,
2013-03-29 13:05:00,48.4,34.7,30.33,West,262,7.0,11.0,59,0.00,,,0.00,meteohub,2013-03-29 18:05:00,
2013-03-29 13:10:00,48.0,34.3,30.33,WSW,242,1.0,11.0,59,0.00,,,0.00,meteohub,2013-03-29 18:10:00,
2013-03-29 13:15:00,48.4,35.1,30.32,WSW,257,8.0,12.0,60,0.00,,,0.00,meteohub,2013-03-29 18:15:00,
2013-03-29 13:20:00,48.2,34.9,30.33,WSW,245,4.0,12.0,60,0.00,,,0.00,meteohub,2013-03-29 18:20:00,
2013-03-29 13:25:00,48.4,34.7,30.32,WSW,238,1.0,12.0,59,0.00,,,0.00,meteohub,2013-03-29 18:25:00,
2013-03-29 13:30:00,48.6,34.9,30.32,WSW,238,5.0,12.0,59,0.00,,,0.00,meteohub,2013-03-29 18:30:00,
2013-03-29 13:35:00,48.7,35.1,30.32,SW,214,2.0,12.0,59,0.00,,,0.00,meteohub,2013-03-29 18:35:00,
2013-03-29 13:40:00,48.7,35.4,30.32,SW,225,6.0,12.0,60,0.00,,,0.00,meteohub,2013-03-29 18:40:00,
2013-03-29 13:45:00,48.9,35.6,30.31,SW,218,4.0,11.0,60,0.00,,,0.00,meteohub,2013-03-29 18:45:00,
2013-03-29 13:50:00,48.9,35.6,30.31,SW,234,2.0,11.0,60,0.00,,,0.00,meteohub,2013-03-29 18:50:00,
2013-03-29 13:55:00,48.7,35.4,30.31,WSW,240,3.0,11.0,60,0.00,,,0.00,meteohub,2013-03-29 18:55:00,
2013-03-29 14:00:00,48.7,36.0,30.31,WSW,246,6.0,13.0,61,0.00,,,0.00,meteohub,2013-03-29 19:00:00,
2013-03-29 14:05:00,48.9,36.1,30.31,WSW,253,7.0,13.0,61,0.00,,,0.00,meteohub,2013-03-29 19:05:00,
2013-03-29 14:10:00,49.1,36.3,30.31,WSW,238,5.0,13.0,61,0.00,,,0.00,meteohub,2013-03-29 19:10:00,
2013-03-29 14:15:00,48.9,35.6,30.30,SSW,200,2.0,12.0,60,0.00,,,0.00,meteohub,2013-03-29 19:15:00,
2013-03-29 14:20:00,49.1,36.3,30.30,WSW,239,6.0,12.0,61,0.00,,,0.00,meteohub,2013-03-29 19:20:00,
2013-03-29 14:25:00,48.9,36.1,30.30,WSW,241,5.0,10.0,61,0.00,,,0.00,meteohub,2013-03-29 19:25:00,
2013-03-29 14:30:00,48.9,36.1,30.30,WSW,244,5.0,11.0,61,0.00,,,0.00,meteohub,2013-03-29 19:30:00,
2013-03-29 14:35:00,48.7,36.3,30.30,WSW,246,5.0,11.0,62,0.00,,,0.00,meteohub,2013-03-29 19:35:00,
2013-03-29 14:40:00,48.9,36.5,30.30,West,260,6.0,11.0,62,0.00,,,0.00,meteohub,2013-03-29 19:40:00,
2013-03-29 14:45:00,49.1,36.3,30.30,WSW,237,2.0,11.0,61,0.00,,,0.00,meteohub,2013-03-29 19:45:00,
2013-03-29 14:50:00,49.3,36.9,30.30,SSW,209,2.0,11.0,62,0.00,,,0.00,meteohub,2013-03-29 19:50:00,
2013-03-29 14:55:00,49.6,37.2,30.29,SW,228,4.0,10.0,62,0.00,,,0.00,meteohub,2013-03-29 19:55:00,
2013-03-29 15:01:00,49.5,37.0,30.29,SSW,210,5.0,10.0,62,0.00,,,0.00,meteohub,2013-03-29 20:01:00,
2013-03-29 15:06:00,49.5,37.0,30.29,SW,221,5.0,10.0,62,0.00,,,0.00,meteohub,2013-03-29 20:06:00,
2013-03-29 15:11:00,49.3,37.2,30.29,SW,233,5.0,12.0,63,0.00,,,0.00,meteohub,2013-03-29 20:11:00,
2013-03-29 15:16:00,49.3,37.2,30.29,SW,220,4.0,12.0,63,0.00,,,0.00,meteohub,2013-03-29 20:16:00,
2013-03-29 15:21:00,49.3,37.2,30.28,SW,229,10.0,11.0,63,0.00,,,0.00,meteohub,2013-03-29 20:21:00,
2013-03-29 15:26:00,49.3,37.2,30.28,WSW,245,3.0,11.0,63,0.00,,,0.00,meteohub,2013-03-29 20:26:00,
2013-03-29 15:32:00,49.1,37.4,30.28,SW,222,3.0,10.0,64,0.00,,,0.00,meteohub,2013-03-29 20:32:00,
2013-03-29 15:37:00,49.3,37.6,30.28,SW,227,6.0,11.0,64,0.00,,,0.00,meteohub,2013-03-29 20:37:00,
2013-03-29 15:42:00,49.3,37.6,30.27,SW,217,6.0,11.0,64,0.00,,,0.00,meteohub,2013-03-29 20:42:00,
2013-03-29 15:47:00,49.1,37.8,30.27,SW,235,5.0,11.0,65,0.00,,,0.00,meteohub,2013-03-29 20:47:00,
2013-03-29 15:52:00,48.7,37.0,30.27,SW,234,6.0,11.0,64,0.00,,,0.00,meteohub,2013-03-29 20:52:00,
2013-03-29 15:57:00,48.4,37.2,30.27,SW,228,7.0,10.0,65,0.00,,,0.00,meteohub,2013-03-29 20:57:00,
2013-03-29 16:02:00,48.4,37.6,30.27,SW,230,3.0,11.0,66,0.00,,,0.00,meteohub,2013-03-29 21:02:00,
2013-03-29 16:07:00,48.6,37.8,30.27,WSW,238,4.0,11.0,66,0.00,,,0.00,meteohub,2013-03-29 21:07:00,
2013-03-29 16:12:00,48.6,37.8,30.27,SW,230,3.0,11.0,66,0.00,,,0.00,meteohub,2013-03-29 21:12:00,
2013-03-29 16:17:00,48.6,37.8,30.26,WSW,245,2.0,10.0,66,0.00,,,0.00,meteohub,2013-03-29 21:17:00,
2013-03-29 16:22:00,48.6,37.8,30.26,SW,223,7.0,10.0,66,0.00,,,0.00,meteohub,2013-03-29 21:22:00,
2013-03-29 16:27:00,48.6,38.1,30.26,SW,217,3.0,10.0,67,0.00,,,0.00,meteohub,2013-03-29 21:27:00,
2013-03-29 16:32:00,48.6,37.8,30.25,WSW,240,7.0,12.0,66,0.00,,,0.00,meteohub,2013-03-29 21:32:00,
2013-03-29 16:37:00,48.2,37.4,30.25,WSW,254,9.0,12.0,66,0.00,,,0.00,meteohub,2013-03-29 21:37:00,
2013-03-29 16:42:00,48.0,37.6,30.25,SW,235,5.0,12.0,67,0.00,,,0.00,meteohub,2013-03-29 21:42:00,
2013-03-29 16:47:00,48.0,37.6,30.25,SW,234,4.0,15.0,67,0.00,,,0.00,meteohub,2013-03-29 21:47:00,
2013-03-29 16:52:00,48.0,37.6,30.25,WSW,238,3.0,15.0,67,0.00,,,0.00,meteohub,2013-03-29 21:52:00,
2013-03-29 16:57:00,48.2,37.8,30.25,SW,236,4.0,15.0,67,0.00,,,0.00,meteohub,2013-03-29 21:57:00,
2013-03-29 17:02:00,48.2,37.4,30.25,SW,230,3.0,12.0,66,0.00,,,0.00,meteohub,2013-03-29 22:02:00,
2013-03-29 17:07:00,48.0,37.6,30.24,WSW,244,6.0,11.0,67,0.00,,,0.00,meteohub,2013-03-29 22:07:00,
2013-03-29 17:12:00,48.0,37.6,30.24,WSW,237,4.0,10.0,67,0.00,,,0.00,meteohub,2013-03-29 22:12:00,
2013-03-29 17:17:00,48.2,37.8,30.24,WSW,240,1.0,10.0,67,0.00,,,0.00,meteohub,2013-03-29 22:17:00,
2013-03-29 17:22:00,48.2,37.8,30.24,SW,232,5.0,9.0,67,0.00,,,0.00,meteohub,2013-03-29 22:22:00,
2013-03-29 17:27:00,48.2,38.8,30.24,WSW,248,3.0,10.0,70,0.00,,,0.00,meteohub,2013-03-29 22:27:00,
2013-03-29 17:32:00,48.2,37.8,30.24,SW,215,7.0,12.0,67,0.00,,,0.00,meteohub,2013-03-29 22:32:00,
2013-03-29 17:37:00,48.0,37.6,30.23,SW,226,3.0,12.0,67,0.00,,,0.00,meteohub,2013-03-29 22:37:00,
2013-03-29 17:42:00,47.8,37.8,30.23,WSW,243,5.0,11.0,68,0.00,,,0.00,meteohub,2013-03-29 22:42:00,
2013-03-29 17:47:00,47.8,37.8,30.23,WSW,248,1.0,11.0,68,0.00,,,0.00,meteohub,2013-03-29 22:47:00,
2013-03-29 17:52:00,47.7,37.6,30.23,WSW,250,5.0,11.0,68,0.00,,,0.00,meteohub,2013-03-29 22:52:00,
2013-03-29 17:57:00,47.7,37.6,30.23,SW,232,3.0,10.0,68,0.00,,,0.00,meteohub,2013-03-29 22:57:00,
2013-03-29 18:02:00,47.7,37.6,30.23,SW,234,3.0,11.0,68,0.00,,,0.00,meteohub,2013-03-29 23:02:00,
2013-03-29 18:07:00,47.7,37.9,30.23,WSW,245,6.0,11.0,69,0.00,,,0.00,meteohub,2013-03-29 23:07:00,
2013-03-29 18:12:00,47.7,37.9,30.23,SW,230,3.0,11.0,69,0.00,,,0.00,meteohub,2013-03-29 23:12:00,
2013-03-29 18:17:00,47.7,37.9,30.22,SW,221,4.0,11.0,69,0.00,,,0.00,meteohub,2013-03-29 23:17:00,
2013-03-29 18:22:00,47.8,38.1,30.22,SW,227,1.0,9.0,69,0.00,,,0.00,meteohub,2013-03-29 23:22:00,
2013-03-29 18:27:00,47.7,37.9,30.22,SW,219,2.0,6.0,69,0.00,,,0.00,meteohub,2013-03-29 23:27:00,
2013-03-29 18:32:00,47.7,38.3,30.22,SW,229,3.0,6.0,70,0.00,,,0.00,meteohub,2013-03-29 23:32:00,
2013-03-29 18:37:00,47.5,38.1,30.22,SSW,207,2.0,6.0,70,0.00,,,0.00,meteohub,2013-03-29 23:37:00,
2013-03-29 18:42:00,47.3,38.3,30.22,SW,227,3.0,6.0,71,0.00,,,0.00,meteohub,2013-03-29 23:42:00,
2013-03-29 18:47:00,47.1,38.1,30.22,SW,227,1.0,6.0,71,0.00,,,0.00,meteohub,2013-03-29 23:47:00,
2013-03-29 18:52:00,46.9,38.1,30.22,SW,233,1.0,5.0,71,0.00,,,0.00,meteohub,2013-03-29 23:52:00,
2013-03-29 18:57:00,46.9,38.3,30.22,SW,234,3.0,5.0,72,0.00,,,0.00,meteohub,2013-03-29 23:57:00,
2013-03-29 19:02:00,46.8,38.3,30.22,SW,236,1.0,6.0,72,0.00,,,0.00,meteohub,2013-03-30 00:02:00,
2013-03-29 19:07:00,46.6,38.1,30.22,SW,236,1.0,6.0,72,0.00,,,0.00,meteohub,2013-03-30 00:07:00,
2013-03-29 19:12:00,46.2,38.1,30.22,SW,236,0.0,6.0,73,0.00,,,0.00,meteohub,2013-03-30 00:12:00,
2013-03-29 19:17:00,46.0,37.9,30.22,SW,236,0.0,4.0,73,0.00,,,0.00,meteohub,2013-03-30 00:17:00,
2013-03-29 19:22:00,45.9,37.8,30.22,SW,236,0.0,4.0,73,0.00,,,0.00,meteohub,2013-03-30 00:22:00,
2013-03-29 19:27:00,45.7,37.9,30.22,SW,236,0.0,4.0,74,0.00,,,0.00,meteohub,2013-03-30 00:27:00,
2013-03-29 19:33:00,45.1,37.4,30.22,SW,236,0.0,4.0,74,0.00,,,0.00,meteohub,2013-03-30 00:33:00,
2013-03-29 19:38:00,45.0,37.6,30.22,SW,236,0.0,3.0,75,0.00,,,0.00,meteohub,2013-03-30 00:38:00,
2013-03-29 19:43:00,45.0,37.6,30.21,SW,236,0.0,4.0,75,0.00,,,0.00,meteohub,2013-03-30 00:43:00,
2013-03-29 19:48:00,44.6,37.6,30.21,SW,236,0.0,4.0,76,0.00,,,0.00,meteohub,2013-03-30 00:48:00,
2013-03-29 19:53:00,44.4,37.4,30.21,SW,236,0.0,4.0,76,0.00,,,0.00,meteohub,2013-03-30 00:53:00,
2013-03-29 19:58:00,44.2,37.2,30.21,SW,236,0.0,3.0,76,0.00,,,0.00,meteohub,2013-03-30 00:58:00,
2013-03-29 20:03:00,44.2,37.6,30.21,SW,236,0.0,3.0,77,0.00,,,0.00,meteohub,2013-03-30 01:03:00,
2013-03-29 20:08:00,44.1,37.4,30.21,SW,236,0.0,3.0,77,0.00,,,0.00,meteohub,2013-03-30 01:08:00,
2013-03-29 20:13:00,44.1,37.4,30.21,SW,236,0.0,3.0,77,0.00,,,0.00,meteohub,2013-03-30 01:13:00,
2013-03-29 20:18:00,43.9,37.2,30.21,SW,236,0.0,3.0,77,0.00,,,0.00,meteohub,2013-03-30 01:18:00,
2013-03-29 20:23:00,43.5,36.9,30.21,SW,236,0.0,2.0,77,0.00,,,0.00,meteohub,2013-03-30 01:23:00,
2013-03-29 20:28:00,43.5,37.0,30.21,SW,236,2.0,2.0,78,0.00,,,0.00,meteohub,2013-03-30 01:28:00,
2013-03-29 20:33:00,43.5,37.0,30.21,SW,236,0.0,2.0,78,0.00,,,0.00,meteohub,2013-03-30 01:33:00,
2013-03-29 20:38:00,43.3,36.9,30.21,SW,236,0.0,2.0,78,0.00,,,0.00,meteohub,2013-03-30 01:38:00,
2013-03-29 20:43:00,43.0,36.7,30.21,SW,236,0.0,2.0,78,0.00,,,0.00,meteohub,2013-03-30 01:43:00,
2013-03-29 20:48:00,42.8,36.5,30.20,SW,236,0.0,1.0,78,0.00,,,0.00,meteohub,2013-03-30 01:48:00,
2013-03-29 20:53:00,42.6,36.5,30.20,SW,236,0.0,1.0,79,0.00,,,0.00,meteohub,2013-03-30 01:53:00,
2013-03-29 20:58:00,42.4,36.3,30.20,SW,236,0.0,1.0,79,0.00,,,0.00,meteohub,2013-03-30 01:58:00,
2013-03-29 21:03:00,42.3,36.1,30.20,SW,236,0.0,1.0,79,0.00,,,0.00,meteohub,2013-03-30 02:03:00,
2013-03-29 21:08:00,42.3,36.5,30.20,SW,236,0.0,0.0,80,0.00,,,0.00,meteohub,2013-03-30 02:08:00,
2013-03-29 21:13:00,42.3,36.5,30.20,SW,236,0.0,0.0,80,0.00,,,0.00,meteohub,2013-03-30 02:13:00,
2013-03-29 21:18:00,42.4,37.0,30.20,SW,236,0.0,0.0,81,0.00,,,0.00,meteohub,2013-03-30 02:18:00,
2013-03-29 21:23:00,42.6,36.9,30.20,SW,236,0.0,1.0,80,0.00,,,0.00,meteohub,2013-03-30 02:23:00,
2013-03-29 21:28:00,42.4,36.7,30.20,SW,236,0.0,1.0,80,0.00,,,0.00,meteohub,2013-03-30 02:28:00,
2013-03-29 21:33:00,42.4,36.7,30.20,SW,236,0.0,1.0,80,0.00,,,0.00,meteohub,2013-03-30 02:33:00,
2013-03-29 21:38:00,42.4,36.7,30.20,SW,236,0.0,0.0,80,0.00,,,0.00,meteohub,2013-03-30 02:38:00,
2013-03-29 21:43:00,42.4,36.7,30.20,SW,236,0.0,2.0,80,0.00,,,0.00,meteohub,2013-03-30 02:43:00,
2013-03-29 21:48:00,42.6,37.2,30.20,SW,236,0.0,2.0,81,0.00,,,0.00,meteohub,2013-03-30 02:48:00,
2013-03-29 21:53:00,42.6,36.9,30.20,SW,236,0.0,3.0,80,0.00,,,0.00,meteohub,2013-03-30 02:53:00,
2013-03-29 21:58:00,42.6,36.9,30.20,SW,236,4.0,4.0,80,0.00,,,0.00,meteohub,2013-03-30 02:58:00,
2013-03-29 22:03:00,42.4,36.7,30.19,SW,236,0.0,2.0,80,0.00,,,0.00,meteohub,2013-03-30 03:03:00,
2013-03-29 22:08:00,42.4,36.7,30.19,SW,236,0.0,4.0,80,0.00,,,0.00,meteohub,2013-03-30 03:08:00,
2013-03-29 22:13:00,42.1,36.3,30.19,SW,236,0.0,4.0,80,0.00,,,0.00,meteohub,2013-03-30 03:13:00,
2013-03-29 22:18:00,41.7,36.0,30.19,SW,236,0.0,3.0,80,0.00,,,0.00,meteohub,2013-03-30 03:18:00,
2013-03-29 22:23:00,41.5,35.8,30.19,SW,236,0.0,1.0,80,0.00,,,0.00,meteohub,2013-03-30 03:23:00,
2013-03-29 22:28:00,41.5,36.1,30.19,SW,236,0.0,1.0,81,0.00,,,0.00,meteohub,2013-03-30 03:28:00,
2013-03-29 22:33:00,41.4,36.0,30.19,SW,236,0.0,1.0,81,0.00,,,0.00,meteohub,2013-03-30 03:33:00,
2013-03-29 22:38:00,41.4,36.0,30.19,SW,236,0.0,1.0,81,0.00,,,0.00,meteohub,2013-03-30 03:38:00,
2013-03-29 22:43:00,41.4,36.0,30.19,SW,236,2.0,2.0,81,0.00,,,0.00,meteohub,2013-03-30 03:43:00,
2013-03-29 22:49:00,41.4,36.3,30.18,SW,236,0.0,2.0,82,0.00,,,0.00,meteohub,2013-03-30 03:49:00,
2013-03-29 22:54:00,41.4,36.3,30.18,SW,236,0.0,2.0,82,0.00,,,0.00,meteohub,2013-03-30 03:54:00,
2013-03-29 22:59:00,41.4,36.3,30.18,SW,236,0.0,2.0,82,0.00,,,0.00,meteohub,2013-03-30 03:59:00,
2013-03-29 23:00:00,41.4,36.3,30.18,SW,236,0.0,2.0,82,0.00,,,0.00,meteohub,2013-03-30 04:00:00,
2013-03-29 23:05:00,41.4,36.3,30.17,SW,236,0.0,2.0,82,0.00,,,0.00,meteohub,2013-03-30 04:05:00,
2013-03-29 23:10:00,41.4,36.3,30.17,SW,236,2.0,2.0,82,0.00,,,0.00,meteohub,2013-03-30 04:10:00,
2013-03-29 23:15:00,41.5,36.5,30.17,SW,236,0.0,1.0,82,0.00,,,0.00,meteohub,2013-03-30 04:15:00,
2013-03-29 23:20:00,41.7,36.3,30.17,SW,236,0.0,3.0,81,0.00,,,0.00,meteohub,2013-03-30 04:20:00,
2013-03-29 23:25:00,41.9,36.5,30.17,SW,236,0.0,3.0,81,0.00,,,0.00,meteohub,2013-03-30 04:25:00,
2013-03-29 23:30:00,42.1,36.7,30.17,SW,236,0.0,3.0,81,0.00,,,0.00,meteohub,2013-03-30 04:30:00,
2013-03-29 23:35:00,42.1,36.7,30.16,SW,236,0.0,4.0,81,0.00,,,0.00,meteohub,2013-03-30 04:35:00,
2013-03-29 23:40:00,42.1,36.3,30.16,SW,236,0.0,4.0,80,0.00,,,0.00,meteohub,2013-03-30 04:40:00,
2013-03-29 23:45:00,42.1,36.3,30.16,SW,236,0.0,4.0,80,0.00,,,0.00,meteohub,2013-03-30 04:45:00,
2013-03-29 23:50:00,42.1,36.3,30.16,SW,236,0.0,3.0,80,0.00,,,0.00,meteohub,2013-03-30 04:50:00,
2013-03-29 23:55:00,42.1,36.3,30.15,SW,236,0.0,2.0,80,0.00,,,0.00,meteohub,2013-03-30 04:55:00,